Flag for Romania Weather past 2 weeks in Cluj-Napoca, Romania

Now
72 °F

Clear.


Feels Like: 75 °F
Forecast: 62 / 81 °F
Wind: 10 mph from West

Location: Cluj Airport-Napoca

Current Time: Jul 29, 2015 at 11:46:11 PM

Latest Report: Jul 29, 2015 at 11:00 PM


Visibility: 10 mi

Pressure: 29.86 "Hg

Humidity: 65%

Dew point: 59 °F

Location of Cluj-NapocaLocation

Historic Weather in Cluj-Napoca — Graph

°F

Cluj-Napoca temperature yesterday

Maximum temperature yesterday: 81 °F (at 3:00 PM)
Minimum temperature yesterday: 61 °F (at 6:00 AM)
Average temperature yesterday: 71 °F

Past Weeks' High & Low Weather Summary

 TemperatureHumidityPressure
High93 °F (Jul 23, 4:00 PM)100% (Jul 15, 6:30 AM)30.18 "Hg (Jul 15, 6:30 AM)
Low55 °F (Jul 17, 5:00 AM)27% (Jul 21, 5:00 PM)29.74 "Hg (Jul 27, 5:00 PM)
Average75 °F66%29.96 "Hg
* Reported Jul 14 11:00 PM — Jul 29 11:00 PM, Cluj-Napoca, Weather by CustomWeather, © 2015

Note: Actual official high and low records may vary slightly from our data, if they occured in-between our weather recording intervals... More about our weather records

Advertising

Cluj-Napoca weather history for previous 24 hours

 ConditionsComfort  
Time TempWeatherWind HumidityBarometerVisibility
11:00 PM
Wed, Jul 29
72 °FClear.10 mph65%29.86 "Hg10 mi
10:00 PM73 °FSunny.6 mph65%29.86 "Hg10 mi
9:30 PM75 °FSunny.8 mph65%29.83 "Hg10 mi
9:00 PM79 °FSunny.6 mph58%29.83 "Hg10 mi
8:30 PM79 °FPassing clouds.9 mph58%29.80 "HgN/A
8:00 PM82 °FPassing clouds.3 mph48%29.80 "HgN/A
7:30 PM84 °FPassing clouds.6 mph43%29.80 "HgN/A
7:00 PM84 °FPassing clouds.7 mph43%29.80 "HgN/A
6:30 PM84 °FPassing clouds.6 mph43%29.80 "HgN/A
6:00 PM84 °FPassing clouds.5 mph43%29.80 "HgN/A
5:30 PM84 °FPassing clouds.6 mph43%29.80 "HgN/A
5:00 PM84 °FPassing clouds.7 mph43%29.80 "HgN/A
4:30 PM84 °FPassing clouds.5 mph40%29.80 "HgN/A
4:00 PM84 °FPassing clouds.7 mph40%29.80 "HgN/A
3:30 PM84 °FSunny.6 mph43%29.83 "Hg10 mi
3:00 PM82 °FSunny.6 mph42%29.83 "Hg10 mi
2:30 PM81 °FSunny.5 mph45%29.83 "Hg10 mi
2:00 PM82 °FSunny.2 mph42%29.83 "Hg10 mi
1:30 PM81 °FSunny.2 mph45%29.83 "Hg10 mi
1:00 PM79 °FSunny.5 mph48%29.83 "Hg10 mi
12:30 PM81 °FSunny.6 mph45%29.83 "Hg10 mi
12:00 PM79 °FSunny.8 mph45%29.83 "Hg10 mi
11:30 AM79 °FSunny.7 mph48%29.83 "Hg10 mi
11:00 AM77 °FSunny.9 mph57%29.86 "Hg10 mi
10:30 AM77 °FSunny.8 mph54%29.86 "Hg10 mi
10:00 AM73 °FSunny.8 mph65%29.86 "Hg10 mi
9:30 AM72 °FSunny.8 mph65%29.86 "Hg10 mi
9:00 AM68 °FSunny.6 mph78%29.86 "Hg10 mi
8:30 AM64 °FPassing clouds.7 mph83%29.86 "HgN/A
8:00 AM63 °FSunny.3 mph88%29.86 "Hg10 mi
7:30 AM61 °FSunny.2 mph94%29.89 "Hg10 mi
7:00 AM59 °FClear.3 mph94%29.89 "Hg10 mi
6:30 AM55 °FClear.3 mph100%29.89 "Hg10 mi
6:00 AM57 °FClear.5 mph100%29.89 "Hg10 mi
5:30 AM57 °FClear.5 mph100%29.89 "Hg10 mi
5:00 AM57 °FClear.3 mph100%29.89 "Hg10 mi
4:00 AM59 °FPassing clouds.3 mph100%29.89 "HgN/A
3:00 AM59 °FClear.2 mph94%29.89 "Hg10 mi
2:00 AM63 °FClear.2 mph83%29.92 "Hg10 mi
1:00 AM63 °FClear.No wind88%29.92 "Hg10 mi
12:00 AM63 °FClear.No wind83%29.92 "Hg10 mi
11:30 PM
Tue, Jul 28
64 °FPassing clouds.3 mph78%29.89 "HgN/A
11:00 PM64 °FPassing clouds.1 mph78%29.89 "HgN/A
Weather by CustomWeather, © 2015

See weather overviewHow to use our weather pages